Flag for Brazil Weather past 2 weeks in Belo Horizonte, Minas Gerais, Brazil

Now
73 °F

Passing clouds.


Feels Like: 76 °F
Forecast: N/A
Wind: 14 mph from East

Location: Belo Horizonte Airport

Current Time: Oct 21, 2014 at 8:44:22 PM

Latest Report: Oct 21, 2014 at 8:00 PM


Visibility: N/A

Pressure: 30.07 "Hg

Humidity: 61%

Dew point: 59 °F

Location of Belo HorizonteLocation

Historic Weather in Belo Horizonte — Graph

°F

Belo Horizonte temperature yesterday

Maximum temperature yesterday: 90 °F (at 2:00 PM)
Minimum temperature yesterday: 72 °F (at 6:00 AM)
Average temperature yesterday: 81 °F

Past Weeks' High & Low Weather Summary

 TemperatureHumidityPressure
High97 °F (Oct 14, 3:00 PM)100% (Oct 21, 12:00 AM)30.27 "Hg (Oct 21, 12:00 AM)
Low32 °F (Oct 21, 12:00 AM)11% (Oct 11, 4:00 PM)29.92 "Hg (Oct 18, 3:00 PM)
Average77 °F42%30.09 "Hg
* Reported Oct 6 7:00 PM — Oct 21 8:00 PM, Belo Horizonte, Weather by CustomWeather, © 2014

Note: Actual official high and low records may vary slightly from our data, if they occured in-between our weather recording intervals... More about our weather records

Advertising

Belo Horizonte weather history for previous 24 hours

 ConditionsComfort  
Time TempWeatherWind HumidityBarometerVisibility
8:00 PM
Oct 21
73 °FPassing clouds.14 mph61%30.07 "HgN/A
7:00 PM75 °FPartly sunny.14 mph54%30.07 "HgN/A
6:00 PM77 °FPartly sunny.13 mph51%30.07 "HgN/A
5:00 PM77 °FBroken clouds.12 mph51%30.07 "HgN/A
4:00 PM79 °FPartly sunny.12 mph48%30.07 "HgN/A
3:00 PM79 °FPartly sunny.13 mph48%30.07 "HgN/A
2:00 PM77 °FPartly sunny.13 mph54%30.09 "HgN/A
1:00 PM75 °FBroken clouds.13 mph57%30.12 "HgN/A
12:00 PM75 °FBroken clouds.15 mph61%30.12 "HgN/A
11:00 AM72 °FBroken clouds.15 mph69%30.12 "HgN/A
10:00 AM72 °FBroken clouds.15 mph73%30.12 "HgN/A
9:00 AM70 °FBroken clouds.15 mph73%30.12 "HgN/A
8:00 AM70 °FSunny.8 mph73%30.09 "Hg10 mi
7:00 AM68 °FClear.8 mph83%30.07 "Hg10 mi
6:00 AM66 °FClear.6 mph88%30.07 "Hg10 mi
5:00 AM68 °FClear.8 mph83%30.07 "Hg10 mi
4:00 AM68 °FClear.12 mph83%30.04 "Hg10 mi
3:00 AM68 °FPassing clouds.14 mph83%30.04 "HgN/A
2:00 AM68 °FPartly cloudy.14 mph88%30.04 "HgN/A
1:00 AM68 °FPartly cloudy.12 mph88%30.07 "HgN/A
12:00 AM32 °FThunderstorms. Partly cloudy.7 mph100%30.09 "HgN/A
8:00 PM
Oct 20
82 °FClear.5 mph40%29.95 "Hg10 mi
Weather by CustomWeather, © 2014

See weather overviewHow to use our weather pages